Location: Ellerstadt
(49.4644°N, 8.2615°E)
Time: 20:24:42
(UTC+00:00)

Vanguard 1 - Pass Details

Date: 17 June 2021
Orbit: 651 x 3831 km, 34.2° (Epoch: 29 July)

Event Time Altitude Azimuth Distance (km) Brightness Sun altitude
Rises 18:45:35 0° 197° (SSW) 7,838 14.5 6.0°
Reaches altitude 10° 18:52:46 10° 186° (S) 6,925 14.1 4.9°
Maximum altitude 19:08:22 23° 143° (SE) 5,518 13.4 2.8°
Drops below altitude 10° 19:21:20 10° 100° (E) 5,777 13.4 1.1°
Sets 19:26:23 0° 87° (E) 6,333 13.7 0.4°
